owner,sensor,date,latitude,longitude,air_temperature,qcFlag 
LUMCON,ioos:station:LUMCON:101:1,2013-05-03T15:00:00Z,29.2533,-90.6633,7.2,1111122 
LUMCON,ioos:station:LUMCON:101:1,2013-05-03T18:00:00Z,29.2533,-90.6633,17.3,1111122 
LUMCON,ioos:station:LUMCON:101:1,2013-05-03T19:00:00Z,29.2533,-90.6633,17.1,1111122 
LUMCON,ioos:station:LUMCON:101:1,2013-05-03T20:00:00Z,29.2533,-90.6633,17.5,1111122 
LUMCON,ioos:station:LUMCON:101:1,2013-05-03T22:00:00Z,29.2533,-90.6633,16.0,1111122 
LUMCON,ioos:station:LUMCON:101:1,2013-05-03T23:00:00Z,29.2533,-90.6633,15.9,1111122 
LUMCON,ioos:station:LUMCON:101:1,2013-05-04T00:00:00Z,29.2533,-90.6633,14.0,1111122 
LUMCON,ioos:station:LUMCON:101:1,2013-05-04T01:00:00Z,29.2533,-90.6633,13.0,1111122 
LUMCON,ioos:station:LUMCON:101:1,2013-05-04T02:00:00Z,29.2533,-90.6633,12.4,1111122 
LUMCON,ioos:station:LUMCON:101:1,2013-05-04T03:00:00Z,29.2533,-90.6633,12.0,1111122 
LUMCON,ioos:station:LUMCON:101:1,2013-05-04T04:00:00Z,29.2533,-90.6633,11.7,1111122 
LUMCON,ioos:station:LUMCON:101:1,2013-05-04T05:00:00Z,29.2533,-90.6633,11.5,1111122 
LUMCON,ioos:station:LUMCON:101:1,2013-05-04T06:00:00Z,29.2533,-90.6633,11.3,1111122 
LUMCON,ioos:station:LUMCON:101:1,2013-05-04T07:00:00Z,29.2533,-90.6633,10.4,1111122 
LUMCON,ioos:station:LUMCON:101:1,2013-05-04T08:00:00Z,29.2533,-90.6633,9.9,1111122 
LUMCON,ioos:station:LUMCON:101:1,2013-05-04T09:00:00Z,29.2533,-90.6633,9.9,1111122 
LUMCON,ioos:station:LUMCON:101:1,2013-05-04T10:00:00Z,29.2533,-90.6633,9.7,1111122 
LUMCON,ioos:station:LUMCON:101:1,2013-05-04T11:00:00Z,29.2533,-90.6633,10.0,1111122 
LUMCON,ioos:station:LUMCON:101:1,2013-05-04T12:00:00Z,29.2533,-90.6633,10.6,1111122 
LUMCON,ioos:station:LUMCON:101:1,2013-05-04T13:00:00Z,29.2533,-90.6633,11.5,1111122 
LUMCON,ioos:station:LUMCON:101:1,2013-05-04T15:00:00Z,29.2533,-90.6633,14.1,1111122 
LUMCON,ioos:station:LUMCON:101:1,2013-05-04T16:00:00Z,29.2533,-90.6633,15.4,1111122 
LUMCON,ioos:station:LUMCON:101:1,2013-05-04T17:00:00Z,29.2533,-90.6633,16.8,1111122 
LUMCON,ioos:station:LUMCON:101:1,2013-05-04T18:00:00Z,29.2533,-90.6633,17.6,1111122 
LUMCON,ioos:station:LUMCON:101:1,2013-05-05T02:00:00Z,29.2533,-90.6633,17.8,1111122 
LUMCON,ioos:station:LUMCON:101:1,2013-05-05T03:00:00Z,29.2533,-90.6633,17.9,1111122 
LUMCON,ioos:station:LUMCON:101:1,2013-05-05T13:00:00Z,29.2533,-90.6633,17.4,1111122 
LUMCON,ioos:station:LUMCON:101:1,2013-05-05T14:00:00Z,29.2533,-90.6633,16.4,1111122 
LUMCON,ioos:station:LUMCON:101:1,2013-05-05T15:00:00Z,29.2533,-90.6633,17.0,1111122 
LUMCON,ioos:station:LUMCON:101:1,2013-05-05T16:00:00Z,29.2533,-90.6633,17.9,1111122 
LUMCON,ioos:station:LUMCON:101:1,2013-05-05T17:00:00Z,29.2533,-90.6633,17.6,1111122 
LUMCON,ioos:station:LUMCON:101:1,2013-05-05T18:00:00Z,29.2533,-90.6633,17.7,11111222 
LUMCON,ioos:station:LUMCON:101:1,2013-05-05T19:00:00Z,29.2533,-90.6633,18.2,11111222 
LUMCON,ioos:station:LUMCON:101:1,2013-05-05T20:00:00Z,29.2533,-90.6633,18.8,11111222 
LUMCON,ioos:station:LUMCON:101:1,2013-05-05T21:00:00Z,29.2533,-90.6633,18.7,11111222 
LUMCON,ioos:station:LUMCON:101:1,2013-05-05T22:00:00Z,29.2533,-90.6633,18.5,11111222 
LUMCON,ioos:station:LUMCON:101:1,2013-05-05T23:00:00Z,29.2533,-90.6633,18.4,11111222 
LUMCON,ioos:station:LUMCON:101:1,2013-05-06T00:00:00Z,29.2533,-90.6633,17.7,11111222 
LUMCON,ioos:station:LUMCON:101:1,2013-05-06T01:00:00Z,29.2533,-90.6633,16.7,11111222 
LUMCON,ioos:station:LUMCON:101:1,2013-05-06T02:00:00Z,29.2533,-90.6633,16.1,11111222 
LUMCON,ioos:station:LUMCON:101:1,2013-05-06T03:00:00Z,29.2533,-90.6633,15.9,11111222 
LUMCON,ioos:station:LUMCON:101:1,2013-05-06T04:00:00Z,29.2533,-90.6633,15.2,11111222 
LUMCON,ioos:station:LUMCON:101:1,2013-05-06T14:00:00Z,29.2533,-90.6633,17.5,11111222 
LUMCON,ioos:station:LUMCON:101:1,2013-05-06T15:00:00Z,29.2533,-90.6633,18.2,11111222 
LUMCON,ioos:station:LUMCON:101:1,2013-05-06T16:00:00Z,29.2533,-90.6633,18.7,11111222 
LUMCON,ioos:station:LUMCON:101:1,2013-05-06T17:00:00Z,29.2533,-90.6633,19.2,11111222 
LUMCON,ioos:station:LUMCON:101:1,2013-05-06T18:00:00Z,29.2533,-90.6633,19.7,11111222 
LUMCON,ioos:station:LUMCON:101:1,2013-05-06T19:00:00Z,29.2533,-90.6633,20.1,11111222 
LUMCON,ioos:station:LUMCON:101:1,2013-05-06T20:00:00Z,29.2533,-90.6633,20.1,11111222 
LUMCON,ioos:station:LUMCON:101:1,2013-05-06T21:00:00Z,29.2533,-90.6633,20.3,11111222 
LUMCON,ioos:station:LUMCON:101:1,2013-05-06T22:00:00Z,29.2533,-90.6633,20.2,11111222 
LUMCON,ioos:station:LUMCON:101:1,2013-05-06T23:00:00Z,29.2533,-90.6633,20.2,11111222 
LUMCON,ioos:station:LUMCON:101:1,2013-05-07T00:00:00Z,29.2533,-90.6633,19.9,11111222 
LUMCON,ioos:station:LUMCON:101:1,2013-05-07T01:00:00Z,29.2533,-90.6633,18.9,11111222 
LUMCON,ioos:station:LUMCON:101:1,2013-05-07T02:00:00Z,29.2533,-90.6633,18.3,11111222 
LUMCON,ioos:station:LUMCON:101:1,2013-05-07T03:00:00Z,29.2533,-90.6633,18.1,11111222 
LUMCON,ioos:station:LUMCON:101:1,2013-05-07T04:00:00Z,29.2533,-90.6633,18.2,11111222 
LUMCON,ioos:station:LUMCON:101:1,2013-05-07T14:00:00Z,29.2533,-90.6633,21.4,11111222 
LUMCON,ioos:station:LUMCON:101:1,2013-05-07T15:00:00Z,29.2533,-90.6633,22.2,11111222 
LUMCON,ioos:station:LUMCON:101:1,2013-05-07T16:00:00Z,29.2533,-90.6633,23.1,11111222 
LUMCON,ioos:station:LUMCON:101:1,2013-05-07T17:00:00Z,29.2533,-90.6633,23.7,11111222 
LUMCON,ioos:station:LUMCON:101:1,2013-05-07T18:00:00Z,29.2533,-90.6633,24.1,11111222 
LUMCON,ioos:station:LUMCON:101:1,2013-05-07T19:00:00Z,29.2533,-90.6633,24.4,11111222 
LUMCON,ioos:station:LUMCON:101:1,2013-05-07T20:00:00Z,29.2533,-90.6633,24.6,11111222 
LUMCON,ioos:station:LUMCON:101:1,2013-05-07T21:00:00Z,29.2533,-90.6633,24.9,11111222 
LUMCON,ioos:station:LUMCON:101:1,2013-05-07T22:00:00Z,29.2533,-90.6633,24.4,11111222 
LUMCON,ioos:station:LUMCON:101:1,2013-05-07T23:00:00Z,29.2533,-90.6633,23.7,11111222 
LUMCON,ioos:station:LUMCON:101:1,2013-05-08T00:00:00Z,29.2533,-90.6633,23.0,11111222 
LUMCON,ioos:station:LUMCON:101:1,2013-05-08T01:00:00Z,29.2533,-90.6633,21.7,11111222 
LUMCON,ioos:station:LUMCON:101:1,2013-05-08T02:00:00Z,29.2533,-90.6633,21.0,11111222 
LUMCON,ioos:station:LUMCON:101:1,2013-05-08T03:00:00Z,29.2533,-90.6633,20.7,11111222 
LUMCON,ioos:station:LUMCON:101:1,2013-05-08T04:00:00Z,29.2533,-90.6633,20.4,11111222 
LUMCON,ioos:station:LUMCON:101:1,2013-05-08T05:00:00Z,29.2533,-90.6633,20.4,11111222 
LUMCON,ioos:station:LUMCON:101:1,2013-05-08T06:00:00Z,29.2533,-90.6633,20.1,11111222 
LUMCON,ioos:station:LUMCON:101:1,2013-05-08T07:00:00Z,29.2533,-90.6633,20.1,11111222 
LUMCON,ioos:station:LUMCON:101:1,2013-05-08T08:00:00Z,29.2533,-90.6633,20.1,11111222 
LUMCON,ioos:station:LUMCON:101:1,2013-05-08T09:00:00Z,29.2533,-90.6633,20.0,11111222 
LUMCON,ioos:station:LUMCON:101:1,2013-05-08T10:00:00Z,29.2533,-90.6633,19.9,11111222 
LUMCON,ioos:station:LUMCON:101:1,2013-05-08T11:00:00Z,29.2533,-90.6633,20.1,11111222 
LUMCON,ioos:station:LUMCON:101:1,2013-05-08T12:00:00Z,29.2533,-90.6633,20.8,11111222 
LUMCON,ioos:station:LUMCON:101:1,2013-05-08T13:00:00Z,29.2533,-90.6633,21.6,11111222 
LUMCON,ioos:station:LUMCON:101:1,2013-05-08T14:00:00Z,29.2533,-90.6633,22.2,11111222 
LUMCON,ioos:station:LUMCON:101:1,2013-05-08T15:00:00Z,29.2533,-90.6633,23.1,11111222 
LUMCON,ioos:station:LUMCON:101:1,2013-05-08T16:00:00Z,29.2533,-90.6633,23.0,11111222 
LUMCON,ioos:station:LUMCON:101:1,2013-05-08T17:00:00Z,29.2533,-90.6633,23.1,11111222 
LUMCON,ioos:station:LUMCON:101:1,2013-05-08T18:00:00Z,29.2533,-90.6633,23.4,11111222 
LUMCON,ioos:station:LUMCON:101:1,2013-05-08T19:00:00Z,29.2533,-90.6633,23.5,11111222 
LUMCON,ioos:station:LUMCON:101:1,2013-05-08T20:00:00Z,29.2533,-90.6633,23.8,11111222 
LUMCON,ioos:station:LUMCON:101:1,2013-05-08T21:00:00Z,29.2533,-90.6633,24.1,11111222 
LUMCON,ioos:station:LUMCON:101:1,2013-05-08T22:00:00Z,29.2533,-90.6633,24.1,11111222 
LUMCON,ioos:station:LUMCON:101:1,2013-05-08T23:00:00Z,29.2533,-90.6633,23.9,11111222 
LUMCON,ioos:station:LUMCON:101:1,2013-05-09T00:00:00Z,29.2533,-90.6633,23.3,11111222 
LUMCON,ioos:station:LUMCON:101:1,2013-05-09T01:00:00Z,29.2533,-90.6633,22.7,11111222 
LUMCON,ioos:station:LUMCON:101:1,2013-05-09T02:00:00Z,29.2533,-90.6633,22.8,11111222 
LUMCON,ioos:station:LUMCON:101:1,2013-05-09T03:00:00Z,29.2533,-90.6633,22.9,11111222 
LUMCON,ioos:station:LUMCON:101:1,2013-05-09T04:00:00Z,29.2533,-90.6633,22.9,11111222 
LUMCON,ioos:station:LUMCON:101:1,2013-05-09T14:00:00Z,29.2533,-90.6633,23.7,11111222 
LUMCON,ioos:station:LUMCON:101:1,2013-05-09T15:00:00Z,29.2533,-90.6633,24.0,11111222 
LUMCON,ioos:station:LUMCON:101:1,2013-05-09T16:00:00Z,29.2533,-90.6633,24.1,11111222 
LUMCON,ioos:station:LUMCON:101:1,2013-05-09T17:00:00Z,29.2533,-90.6633,24.4,11111222 
LUMCON,ioos:station:LUMCON:101:1,2013-05-09T18:00:00Z,29.2533,-90.6633,24.8,11111222 
LUMCON,ioos:station:LUMCON:101:1,2013-05-09T19:00:00Z,29.2533,-90.6633,24.8,11111222 
LUMCON,ioos:station:LUMCON:101:1,2013-05-09T20:00:00Z,29.2533,-90.6633,24.8,11111222 
LUMCON,ioos:station:LUMCON:101:1,2013-05-09T21:00:00Z,29.2533,-90.6633,24.7,11111222 
LUMCON,ioos:station:LUMCON:101:1,2013-05-09T22:00:00Z,29.2533,-90.6633,24.5,11111222 
LUMCON,ioos:station:LUMCON:101:1,2013-05-09T23:00:00Z,29.2533,-90.6633,24.4,11111222 
LUMCON,ioos:station:LUMCON:101:1,2013-05-10T00:00:00Z,29.2533,-90.6633,24.2,11111222 
LUMCON,ioos:station:LUMCON:101:1,2013-05-10T01:00:00Z,29.2533,-90.6633,24.1,11111222 
LUMCON,ioos:station:LUMCON:101:1,2013-05-10T02:00:00Z,29.2533,-90.6633,24.2,11111222 
LUMCON,ioos:station:LUMCON:101:1,2013-05-10T03:00:00Z,29.2533,-90.6633,24.0,11111222 
LUMCON,ioos:station:LUMCON:101:1,2013-05-10T04:00:00Z,29.2533,-90.6633,23.8,11111222 
LUMCON,ioos:station:LUMCON:101:1,2013-05-13T15:00:00Z,29.2533,-90.6633,19.7,11111222 
LUMCON,ioos:station:LUMCON:101:1,2013-05-13T16:00:00Z,29.2533,-90.6633,20.5,11111222 
LUMCON,ioos:station:LUMCON:101:1,2013-05-13T17:00:00Z,29.2533,-90.6633,20.8,11111222 
LUMCON,ioos:station:LUMCON:101:1,2013-05-13T18:00:00Z,29.2533,-90.6633,21.2,11111222 
LUMCON,ioos:station:LUMCON:101:1,2013-05-13T19:00:00Z,29.2533,-90.6633,21.8,11111222 
LUMCON,ioos:station:LUMCON:101:1,2013-05-13T20:00:00Z,29.2533,-90.6633,22.0,11111222 
LUMCON,ioos:station:LUMCON:101:1,2013-05-13T21:00:00Z,29.2533,-90.6633,22.5,11111222 
LUMCON,ioos:station:LUMCON:101:1,2013-05-13T22:00:00Z,29.2533,-90.6633,22.6,11111222 
LUMCON,ioos:station:LUMCON:101:1,2013-05-13T23:00:00Z,29.2533,-90.6633,22.5,11111222 
LUMCON,ioos:station:LUMCON:101:1,2013-05-14T00:00:00Z,29.2533,-90.6633,22.2,11111222 
LUMCON,ioos:station:LUMCON:101:1,2013-05-14T01:00:00Z,29.2533,-90.6633,20.8,11111222 
LUMCON,ioos:station:LUMCON:101:1,2013-05-14T02:00:00Z,29.2533,-90.6633,20.6,11111222 
LUMCON,ioos:station:LUMCON:101:1,2013-05-14T03:00:00Z,29.2533,-90.6633,20.5,11111222 
LUMCON,ioos:station:LUMCON:101:1,2013-05-14T04:00:00Z,29.2533,-90.6633,20.3,11111222 
LUMCON,ioos:station:LUMCON:101:1,2013-05-14T05:00:00Z,29.2533,-90.6633,20.4,11111222 
LUMCON,ioos:station:LUMCON:101:1,2013-05-14T06:00:00Z,29.2533,-90.6633,20.2,11111222 
LUMCON,ioos:station:LUMCON:101:1,2013-05-14T07:00:00Z,29.2533,-90.6633,20.0,11111222 
LUMCON,ioos:station:LUMCON:101:1,2013-05-14T08:00:00Z,29.2533,-90.6633,19.6,11111222 
LUMCON,ioos:station:LUMCON:101:1,2013-05-14T09:00:00Z,29.2533,-90.6633,19.3,11111222 
LUMCON,ioos:station:LUMCON:101:1,2013-05-14T10:00:00Z,29.2533,-90.6633,18.8,11111222 
LUMCON,ioos:station:LUMCON:101:1,2013-05-14T11:00:00Z,29.2533,-90.6633,18.7,11111222 
LUMCON,ioos:station:LUMCON:101:1,2013-05-14T12:00:00Z,29.2533,-90.6633,19.3,11111222 
LUMCON,ioos:station:LUMCON:101:1,2013-05-14T13:00:00Z,29.2533,-90.6633,21.5,11111222 
LUMCON,ioos:station:LUMCON:101:1,2013-05-14T14:00:00Z,29.2533,-90.6633,22.5,11111222 
LUMCON,ioos:station:LUMCON:101:1,2013-05-14T15:00:00Z,29.2533,-90.6633,23.1,11111222 
LUMCON,ioos:station:LUMCON:101:1,2013-05-14T16:00:00Z,29.2533,-90.6633,22.2,11111222 
LUMCON,ioos:station:LUMCON:101:1,2013-05-14T17:00:00Z,29.2533,-90.6633,23.6,11111222 
LUMCON,ioos:station:LUMCON:101:1,2013-05-14T18:00:00Z,29.2533,-90.6633,24.0,11111222 
LUMCON,ioos:station:LUMCON:101:1,2013-05-14T19:00:00Z,29.2533,-90.6633,24.2,11111222 
LUMCON,ioos:station:LUMCON:101:1,2013-05-14T20:00:00Z,29.2533,-90.6633,24.5,11111222 
LUMCON,ioos:station:LUMCON:101:1,2013-05-14T21:00:00Z,29.2533,-90.6633,24.4,11111222 
LUMCON,ioos:station:LUMCON:101:1,2013-05-14T22:00:00Z,29.2533,-90.6633,24.3,11111222 
LUMCON,ioos:station:LUMCON:101:1,2013-05-14T23:00:00Z,29.2533,-90.6633,23.9,11111222 
LUMCON,ioos:station:LUMCON:101:1,2013-05-15T00:00:00Z,29.2533,-90.6633,23.1,11111222 
LUMCON,ioos:station:LUMCON:101:1,2013-05-15T01:00:00Z,29.2533,-90.6633,22.7,11111222 
LUMCON,ioos:station:LUMCON:101:1,2013-05-15T02:00:00Z,29.2533,-90.6633,22.3,11111222 
LUMCON,ioos:station:LUMCON:101:1,2013-05-15T03:00:00Z,29.2533,-90.6633,22.4,11111222 
LUMCON,ioos:station:LUMCON:101:1,2013-05-15T04:00:00Z,29.2533,-90.6633,22.3,11111222 
LUMCON,ioos:station:LUMCON:101:1,2013-05-15T05:00:00Z,29.2533,-90.6633,22.4,11111222 
LUMCON,ioos:station:LUMCON:101:1,2013-05-15T06:00:00Z,29.2533,-90.6633,22.1,11111222 
LUMCON,ioos:station:LUMCON:101:1,2013-05-15T07:00:00Z,29.2533,-90.6633,21.9,11111222 
LUMCON,ioos:station:LUMCON:101:1,2013-05-15T08:00:00Z,29.2533,-90.6633,21.7,11111222 
LUMCON,ioos:station:LUMCON:101:1,2013-05-15T09:00:00Z,29.2533,-90.6633,21.1,11111222 
LUMCON,ioos:station:LUMCON:101:1,2013-05-15T10:00:00Z,29.2533,-90.6633,21.2,11111222 
LUMCON,ioos:station:LUMCON:101:1,2013-05-15T11:00:00Z,29.2533,-90.6633,21.2,11111222 
LUMCON,ioos:station:LUMCON:101:1,2013-05-15T12:00:00Z,29.2533,-90.6633,22.2,11111222 
LUMCON,ioos:station:LUMCON:101:1,2013-05-15T13:00:00Z,29.2533,-90.6633,23.0,11111222 
LUMCON,ioos:station:LUMCON:101:1,2013-05-15T14:00:00Z,29.2533,-90.6633,23.0,11111222 
LUMCON,ioos:station:LUMCON:101:1,2013-05-15T15:00:00Z,29.2533,-90.6633,23.3,11111222 
LUMCON,ioos:station:LUMCON:101:1,2013-05-15T16:00:00Z,29.2533,-90.6633,23.5,11111222 
LUMCON,ioos:station:LUMCON:101:1,2013-05-15T17:00:00Z,29.2533,-90.6633,23.6,11111222 
LUMCON,ioos:station:LUMCON:101:1,2013-05-15T18:00:00Z,29.2533,-90.6633,23.6,11111222 
LUMCON,ioos:station:LUMCON:101:1,2013-05-15T19:00:00Z,29.2533,-90.6633,23.9,11111222 
LUMCON,ioos:station:LUMCON:101:1,2013-05-15T20:00:00Z,29.2533,-90.6633,23.9,11111222 
LUMCON,ioos:station:LUMCON:101:1,2013-05-15T21:00:00Z,29.2533,-90.6633,23.9,11111222 
LUMCON,ioos:station:LUMCON:101:1,2013-05-15T22:00:00Z,29.2533,-90.6633,23.5,11111222 
LUMCON,ioos:station:LUMCON:101:1,2013-05-15T23:00:00Z,29.2533,-90.6633,23.3,11111222 
LUMCON,ioos:station:LUMCON:101:1,2013-05-16T00:00:00Z,29.2533,-90.6633,22.9,11111222 
LUMCON,ioos:station:LUMCON:101:1,2013-05-16T01:00:00Z,29.2533,-90.6633,23.0,11111222 
LUMCON,ioos:station:LUMCON:101:1,2013-05-16T02:00:00Z,29.2533,-90.6633,22.7,11111222 
LUMCON,ioos:station:LUMCON:101:1,2013-05-16T03:00:00Z,29.2533,-90.6633,22.8,11111222 
LUMCON,ioos:station:LUMCON:101:1,2013-05-16T04:00:00Z,29.2533,-90.6633,22.9,11111222 
LUMCON,ioos:station:LUMCON:101:1,2013-05-16T05:00:00Z,29.2533,-90.6633,22.9,11111222 
LUMCON,ioos:station:LUMCON:101:1,2013-05-16T06:00:00Z,29.2533,-90.6633,23.0,11111222 
LUMCON,ioos:station:LUMCON:101:1,2013-05-16T07:00:00Z,29.2533,-90.6633,22.8,11111222 
LUMCON,ioos:station:LUMCON:101:1,2013-05-16T08:00:00Z,29.2533,-90.6633,22.9,11111222 
LUMCON,ioos:station:LUMCON:101:1,2013-05-16T09:00:00Z,29.2533,-90.6633,22.6,11111222 
LUMCON,ioos:station:LUMCON:101:1,2013-05-16T10:00:00Z,29.2533,-90.6633,22.5,11111222 
LUMCON,ioos:station:LUMCON:101:1,2013-05-16T11:00:00Z,29.2533,-90.6633,22.3,11111222 
LUMCON,ioos:station:LUMCON:101:1,2013-05-16T12:00:00Z,29.2533,-90.6633,22.6,11111222 
LUMCON,ioos:station:LUMCON:101:1,2013-05-16T13:00:00Z,29.2533,-90.6633,23.0,11111222 
LUMCON,ioos:station:LUMCON:101:1,2013-05-16T14:00:00Z,29.2533,-90.6633,23.8,11111222 
LUMCON,ioos:station:LUMCON:101:1,2013-05-16T15:00:00Z,29.2533,-90.6633,24.4,11111222 
LUMCON,ioos:station:LUMCON:101:1,2013-05-16T16:00:00Z,29.2533,-90.6633,24.8,11111222 
LUMCON,ioos:station:LUMCON:101:1,2013-05-16T17:00:00Z,29.2533,-90.6633,24.5,11111222 
LUMCON,ioos:station:LUMCON:101:1,2013-05-16T18:00:00Z,29.2533,-90.6633,24.9,11111222 
LUMCON,ioos:station:LUMCON:101:1,2013-05-16T19:00:00Z,29.2533,-90.6633,24.7,11111222 
LUMCON,ioos:station:LUMCON:101:1,2013-05-16T20:00:00Z,29.2533,-90.6633,25.3,11111222 
LUMCON,ioos:station:LUMCON:101:1,2013-05-16T21:00:00Z,29.2533,-90.6633,25.4,11111222 
LUMCON,ioos:station:LUMCON:101:1,2013-05-16T22:00:00Z,29.2533,-90.6633,25.5,11111222 
LUMCON,ioos:station:LUMCON:101:1,2013-05-16T23:00:00Z,29.2533,-90.6633,25.5,11111222 
LUMCON,ioos:station:LUMCON:101:1,2013-05-17T00:00:00Z,29.2533,-90.6633,25.0,11111222 
LUMCON,ioos:station:LUMCON:101:1,2013-05-17T01:00:00Z,29.2533,-90.6633,24.7,11111222 
LUMCON,ioos:station:LUMCON:101:1,2013-05-17T02:00:00Z,29.2533,-90.6633,24.5,11111222 
LUMCON,ioos:station:LUMCON:101:1,2013-05-17T03:00:00Z,29.2533,-90.6633,24.5,11111222 
LUMCON,ioos:station:LUMCON:101:1,2013-05-17T04:00:00Z,29.2533,-90.6633,24.4,11111222 
LUMCON,ioos:station:LUMCON:101:1,2013-05-17T13:00:00Z,29.2533,-90.6633,24.6,11111222 
LUMCON,ioos:station:LUMCON:101:1,2013-05-17T14:00:00Z,29.2533,-90.6633,25.0,11111222 
LUMCON,ioos:station:LUMCON:101:1,2013-05-17T15:00:00Z,29.2533,-90.6633,25.2,11111222 
LUMCON,ioos:station:LUMCON:101:1,2013-05-17T16:00:00Z,29.2533,-90.6633,25.6,11111222 
LUMCON,ioos:station:LUMCON:101:1,2013-05-17T17:00:00Z,29.2533,-90.6633,25.5,11111222 
LUMCON,ioos:station:LUMCON:101:1,2013-05-17T18:00:00Z,29.2533,-90.6633,25.8,11111222 
LUMCON,ioos:station:LUMCON:101:1,2013-05-17T19:00:00Z,29.2533,-90.6633,26.4,11111222 
LUMCON,ioos:station:LUMCON:101:1,2013-05-17T20:00:00Z,29.2533,-90.6633,26.8,11111222 
LUMCON,ioos:station:LUMCON:101:1,2013-05-17T21:00:00Z,29.2533,-90.6633,26.3,11111222 
LUMCON,ioos:station:LUMCON:101:1,2013-05-17T22:00:00Z,29.2533,-90.6633,26.2,11111222 
LUMCON,ioos:station:LUMCON:101:1,2013-05-17T23:00:00Z,29.2533,-90.6633,26.1,11111222 
LUMCON,ioos:station:LUMCON:101:1,2013-05-18T00:00:00Z,29.2533,-90.6633,25.5,11111222 
LUMCON,ioos:station:LUMCON:101:1,2013-05-18T01:00:00Z,29.2533,-90.6633,25.4,11111222 
LUMCON,ioos:station:LUMCON:101:1,2013-05-18T02:00:00Z,29.2533,-90.6633,25.3,11111222 
LUMCON,ioos:station:LUMCON:101:1,2013-05-18T03:00:00Z,29.2533,-90.6633,25.2,11111222 
LUMCON,ioos:station:LUMCON:101:1,2013-05-18T04:00:00Z,29.2533,-90.6633,25.2,11111222 
LUMCON,ioos:station:LUMCON:101:1,2013-05-18T05:00:00Z,29.2533,-90.6633,25.1,11111222 
LUMCON,ioos:station:LUMCON:101:1,2013-05-18T06:00:00Z,29.2533,-90.6633,25.0,11111222 
LUMCON,ioos:station:LUMCON:101:1,2013-05-18T07:00:00Z,29.2533,-90.6633,25.0,11111222 
LUMCON,ioos:station:LUMCON:101:1,2013-05-18T08:00:00Z,29.2533,-90.6633,25.0,11111222 
LUMCON,ioos:station:LUMCON:101:1,2013-05-18T09:00:00Z,29.2533,-90.6633,24.8,11111222 
LUMCON,ioos:station:LUMCON:101:1,2013-05-18T10:00:00Z,29.2533,-90.6633,24.8,11111222 
LUMCON,ioos:station:LUMCON:101:1,2013-05-18T11:00:00Z,29.2533,-90.6633,24.5,11111222 
LUMCON,ioos:station:LUMCON:101:1,2013-05-18T12:00:00Z,29.2533,-90.6633,24.7,11111222 
LUMCON,ioos:station:LUMCON:101:1,2013-05-18T13:00:00Z,29.2533,-90.6633,25.1,11111222 
LUMCON,ioos:station:LUMCON:101:1,2013-05-18T14:00:00Z,29.2533,-90.6633,25.6,11111222 
LUMCON,ioos:station:LUMCON:101:1,2013-05-18T15:00:00Z,29.2533,-90.6633,25.8,11111222 
LUMCON,ioos:station:LUMCON:101:1,2013-05-18T16:00:00Z,29.2533,-90.6633,25.9,11111222 
LUMCON,ioos:station:LUMCON:101:1,2013-05-18T17:00:00Z,29.2533,-90.6633,26.3,11111222 
LUMCON,ioos:station:LUMCON:101:1,2013-05-18T19:00:00Z,29.2533,-90.6633,26.1,11111222 
LUMCON,ioos:station:LUMCON:101:1,2013-05-18T20:00:00Z,29.2533,-90.6633,25.7,11111222 
LUMCON,ioos:station:LUMCON:101:1,2013-05-18T21:00:00Z,29.2533,-90.6633,27.0,11111222 
LUMCON,ioos:station:LUMCON:101:1,2013-05-18T22:00:00Z,29.2533,-90.6633,26.8,11111222 
LUMCON,ioos:station:LUMCON:101:1,2013-05-18T23:00:00Z,29.2533,-90.6633,26.9,11111222 
LUMCON,ioos:station:LUMCON:101:1,2013-05-19T00:00:00Z,29.2533,-90.6633,26.5,11111222 
LUMCON,ioos:station:LUMCON:101:1,2013-05-19T01:00:00Z,29.2533,-90.6633,25.9,11111222 
LUMCON,ioos:station:LUMCON:101:1,2013-05-19T02:00:00Z,29.2533,-90.6633,25.8,11111222 
LUMCON,ioos:station:LUMCON:101:1,2013-05-19T03:00:00Z,29.2533,-90.6633,25.9,11111222 
LUMCON,ioos:station:LUMCON:101:1,2013-05-19T04:00:00Z,29.2533,-90.6633,25.7,11111222 
LUMCON,ioos:station:LUMCON:101:1,2013-05-19T05:00:00Z,29.2533,-90.6633,25.5,11111222 
LUMCON,ioos:station:LUMCON:101:1,2013-05-19T06:00:00Z,29.2533,-90.6633,25.4,11111222 
LUMCON,ioos:station:LUMCON:101:1,2013-05-19T07:00:00Z,29.2533,-90.6633,25.2,11111222 
LUMCON,ioos:station:LUMCON:101:1,2013-05-19T08:00:00Z,29.2533,-90.6633,25.2,11111222 
LUMCON,ioos:station:LUMCON:101:1,2013-05-19T09:00:00Z,29.2533,-90.6633,25.2,11111222 
LUMCON,ioos:station:LUMCON:101:1,2013-05-19T10:00:00Z,29.2533,-90.6633,25.3,11111222 
LUMCON,ioos:station:LUMCON:101:1,2013-05-19T11:00:00Z,29.2533,-90.6633,25.3,11111222 
LUMCON,ioos:station:LUMCON:101:1,2013-05-19T12:00:00Z,29.2533,-90.6633,25.3,11111222 
LUMCON,ioos:station:LUMCON:101:1,2013-05-19T13:00:00Z,29.2533,-90.6633,25.5,11111222 
LUMCON,ioos:station:LUMCON:101:1,2013-05-19T14:00:00Z,29.2533,-90.6633,26.0,11111222 
LUMCON,ioos:station:LUMCON:101:1,2013-05-19T15:00:00Z,29.2533,-90.6633,26.1,11111222 
LUMCON,ioos:station:LUMCON:101:1,2013-05-19T16:00:00Z,29.2533,-90.6633,26.0,11111222 
LUMCON,ioos:station:LUMCON:101:1,2013-05-19T17:00:00Z,29.2533,-90.6633,26.3,11111222 
LUMCON,ioos:station:LUMCON:101:1,2013-05-19T18:00:00Z,29.2533,-90.6633,26.2,11111222 
LUMCON,ioos:station:LUMCON:101:1,2013-05-19T19:00:00Z,29.2533,-90.6633,26.9,11111222 
LUMCON,ioos:station:LUMCON:101:1,2013-05-19T20:00:00Z,29.2533,-90.6633,27.1,11111222 
LUMCON,ioos:station:LUMCON:101:1,2013-05-19T21:00:00Z,29.2533,-90.6633,26.9,11111222 
LUMCON,ioos:station:LUMCON:101:1,2013-05-19T22:00:00Z,29.2533,-90.6633,26.7,11111222 
LUMCON,ioos:station:LUMCON:101:1,2013-05-19T23:00:00Z,29.2533,-90.6633,26.4,11111222 
LUMCON,ioos:station:LUMCON:101:1,2013-05-20T00:00:00Z,29.2533,-90.6633,26.3,11111222 
LUMCON,ioos:station:LUMCON:101:1,2013-05-20T01:00:00Z,29.2533,-90.6633,26.1,11111222 
LUMCON,ioos:station:LUMCON:101:1,2013-05-20T02:00:00Z,29.2533,-90.6633,26.1,11111222 
LUMCON,ioos:station:LUMCON:101:1,2013-05-20T03:00:00Z,29.2533,-90.6633,26.0,11111222 
LUMCON,ioos:station:LUMCON:101:1,2013-05-20T04:00:00Z,29.2533,-90.6633,26.0,11111222 
LUMCON,ioos:station:LUMCON:101:1,2013-05-20T05:00:00Z,29.2533,-90.6633,25.9,11111222 
LUMCON,ioos:station:LUMCON:101:1,2013-05-20T06:00:00Z,29.2533,-90.6633,25.7,11111222 
LUMCON,ioos:station:LUMCON:101:1,2013-05-20T07:00:00Z,29.2533,-90.6633,25.6,11111222 
LUMCON,ioos:station:LUMCON:101:1,2013-05-20T08:00:00Z,29.2533,-90.6633,25.6,11111222 
LUMCON,ioos:station:LUMCON:101:1,2013-05-20T09:00:00Z,29.2533,-90.6633,25.6,11111222 
LUMCON,ioos:station:LUMCON:101:1,2013-05-20T10:00:00Z,29.2533,-90.6633,25.5,11111222 
LUMCON,ioos:station:LUMCON:101:1,2013-05-20T11:00:00Z,29.2533,-90.6633,25.5,11111222 
LUMCON,ioos:station:LUMCON:101:1,2013-05-20T12:00:00Z,29.2533,-90.6633,25.6,11111222 
LUMCON,ioos:station:LUMCON:101:1,2013-05-20T13:00:00Z,29.2533,-90.6633,25.8,11111222 
LUMCON,ioos:station:LUMCON:101:1,2013-05-20T14:00:00Z,29.2533,-90.6633,26.1,11111222 
LUMCON,ioos:station:LUMCON:101:1,2013-05-20T15:00:00Z,29.2533,-90.6633,26.5,11111222 
LUMCON,ioos:station:LUMCON:101:1,2013-05-20T16:00:00Z,29.2533,-90.6633,26.7,11111222 
LUMCON,ioos:station:LUMCON:101:1,2013-05-20T17:00:00Z,29.2533,-90.6633,27.1,11111222 
LUMCON,ioos:station:LUMCON:101:1,2013-05-20T18:00:00Z,29.2533,-90.6633,27.4,11111222 
LUMCON,ioos:station:LUMCON:101:1,2013-05-20T19:00:00Z,29.2533,-90.6633,27.6,11111222 
LUMCON,ioos:station:LUMCON:101:1,2013-05-20T20:00:00Z,29.2533,-90.6633,27.5,11111222 
LUMCON,ioos:station:LUMCON:101:1,2013-05-20T21:00:00Z,29.2533,-90.6633,27.5,11111222 
LUMCON,ioos:station:LUMCON:101:1,2013-05-20T22:00:00Z,29.2533,-90.6633,27.2,11111222 